Terug naar catalogus

YAOGAN-36 02A

ActiefMilitairVLEO
NORAD 54042·PAYLOAD·🇨🇳 China

Gelanceerd Oct 14, 2022 vanaf Xichang Satellite Launch Center

Loading…

Volgende Passages (komende 24 uur)

TLE

VersSource: Space-Track

Epoch: Sep 14, 2026, 12:39 UTC

1 54042U 22133A   26257.52761013  .00007589  00000-0  31321-3 0  9995
2 54042  35.0070 277.9566 0028636 290.7307  69.0340 15.22943381218389

Volg YAOGAN-36 02A in realtime met AllMySat

Download on the App Store